TimeEDT,TemperatureF,Dew PointF,Humidity,Sea Level PressureIn,VisibilityMPH,Wind Direction,Wind SpeedMPH,Gust SpeedMPH,PrecipitationIn,Events,Conditions,WindDirDegrees,DateUTC
12:15 AM,69.8,69.8,100,29.87,10.0,Calm,Calm,-,N/A,,Mostly Cloudy,0,2013-06-19 04:15:00
12:35 AM,69.8,69.8,100,29.87,10.0,Calm,Calm,-,N/A,,Mostly Cloudy,0,2013-06-19 04:35:00
12:55 AM,69.8,69.8,100,29.87,10.0,Calm,Calm,-,N/A,,Overcast,0,2013-06-19 04:55:00
1:15 AM,69.8,69.8,100,29.87,7.0,Calm,Calm,-,0.01,Thunderstorm,Overcast,0,2013-06-19 05:15:00
1:35 AM,69.8,69.8,100,29.87,10.0,Calm,Calm,-,0.01,,Overcast,0,2013-06-19 05:35:00
1:55 AM,69.8,69.8,100,29.87,10.0,North,6.9,-,0.01,,Overcast,10,2013-06-19 05:55:00
2:15 AM,68.0,68.0,100,29.88,10.0,Calm,Calm,-,N/A,,Overcast,0,2013-06-19 06:15:00
2:35 AM,68.0,68.0,100,29.88,10.0,Calm,Calm,-,N/A,,Overcast,0,2013-06-19 06:35:00
2:55 AM,68.0,68.0,100,29.88,10.0,North,3.5,-,N/A,,Overcast,350,2013-06-19 06:55:00
3:15 AM,68.0,68.0,100,29.88,10.0,NNW,3.5,-,N/A,,Overcast,340,2013-06-19 07:15:00
3:35 AM,68.0,68.0,100,29.88,10.0,Calm,Calm,-,N/A,,Overcast,0,2013-06-19 07:35:00
3:55 AM,68.0,68.0,100,29.88,10.0,Calm,Calm,-,N/A,,Scattered Clouds,0,2013-06-19 07:55:00
4:15 AM,68.0,68.0,100,29.88,10.0,Calm,Calm,-,N/A,,Clear,0,2013-06-19 08:15:00
4:35 AM,68.0,68.0,100,29.89,10.0,Calm,Calm,-,N/A,,Clear,0,2013-06-19 08:35:00
4:55 AM,68.0,68.0,100,29.89,10.0,North,3.5,-,N/A,,Clear,350,2013-06-19 08:55:00
5:15 AM,66.2,66.2,100,29.90,10.0,North,4.6,-,N/A,,Clear,360,2013-06-19 09:15:00
5:35 AM,66.2,66.2,100,29.91,10.0,North,3.5,-,N/A,,Clear,360,2013-06-19 09:35:00
5:55 AM,66.2,66.2,100,29.92,10.0,Calm,Calm,-,N/A,,Scattered Clouds,0,2013-06-19 09:55:00
6:15 AM,66.2,66.2,100,29.93,10.0,Calm,Calm,-,N/A,,Mostly Cloudy,0,2013-06-19 10:15:00
6:35 AM,66.2,66.2,100,29.93,10.0,North,3.5,-,N/A,,Mostly Cloudy,10,2013-06-19 10:35:00
6:55 AM,66.2,66.2,100,29.94,10.0,Calm,Calm,-,N/A,,Mostly Cloudy,0,2013-06-19 10:55:00
7:15 AM,68.0,68.0,100,29.95,10.0,Calm,Calm,-,N/A,,Scattered Clouds,0,2013-06-19 11:15:00
7:35 AM,68.0,68.0,100,29.96,10.0,NNE,5.8,-,N/A,,Clear,30,2013-06-19 11:35:00
7:55 AM,69.8,66.2,88,29.97,10.0,NE,5.8,-,N/A,,Scattered Clouds,40,2013-06-19 11:55:00
8:15 AM,69.8,66.2,88,29.98,10.0,NE,4.6,-,N/A,,Clear,40,2013-06-19 12:15:00
8:35 AM,71.6,64.4,78,29.99,10.0,NE,6.9,-,N/A,,Scattered Clouds,50,2013-06-19 12:35:00
8:55 AM,71.6,64.4,78,30.00,10.0,North,8.1,-,N/A,,Mostly Cloudy,360,2013-06-19 12:55:00
9:15 AM,71.6,64.4,78,30.00,10.0,NNE,8.1,-,N/A,,Mostly Cloudy,30,2013-06-19 13:15:00
9:35 AM,71.6,64.4,78,30.00,10.0,NNE,9.2,-,N/A,,Scattered Clouds,30,2013-06-19 13:35:00
9:55 AM,73.4,64.4,73,30.00,10.0,NE,8.1,-,N/A,,Scattered Clouds,50,2013-06-19 13:55:00
10:15 AM,73.4,64.4,73,30.01,10.0,NE,5.8,-,N/A,,Mostly Cloudy,40,2013-06-19 14:15:00
10:35 AM,73.4,62.6,69,30.01,10.0,NE,9.2,-,N/A,,Scattered Clouds,40,2013-06-19 14:35:00
10:55 AM,75.2,62.6,65,30.02,10.0,NE,8.1,-,N/A,,Scattered Clouds,40,2013-06-19 14:55:00
11:15 AM,77.0,62.6,61,30.02,10.0,NE,9.2,-,N/A,,Scattered Clouds,40,2013-06-19 15:15:00
11:35 AM,77.0,62.6,61,30.03,10.0,NNE,6.9,-,N/A,,Scattered Clouds,30,2013-06-19 15:35:00
11:55 AM,77.0,62.6,61,30.04,10.0,North,10.4,-,N/A,,Mostly Cloudy,10,2013-06-19 15:55:00
12:15 PM,77.0,62.6,61,30.03,10.0,NE,5.8,-,N/A,,Scattered Clouds,40,2013-06-19 16:15:00
12:35 PM,77.0,62.6,61,30.03,10.0,ENE,5.8,-,N/A,,Scattered Clouds,70,2013-06-19 16:35:00
12:55 PM,78.8,62.6,57,30.03,10.0,NE,6.9,-,N/A,,Scattered Clouds,50,2013-06-19 16:55:00
1:15 PM,78.8,62.6,57,30.03,10.0,NE,5.8,-,N/A,,Scattered Clouds,50,2013-06-19 17:15:00
1:35 PM,78.8,64.4,61,30.04,10.0,Calm,Calm,-,N/A,,Mostly Cloudy,0,2013-06-19 17:35:00
1:55 PM,78.8,64.4,61,30.04,10.0,NE,5.8,-,N/A,,Overcast,40,2013-06-19 17:55:00
2:15 PM,78.8,64.4,61,30.04,10.0,NNE,6.9,-,N/A,,Mostly Cloudy,30,2013-06-19 18:15:00
2:35 PM,78.8,64.4,61,30.04,10.0,NNE,5.8,-,N/A,,Mostly Cloudy,30,2013-06-19 18:35:00
2:55 PM,78.8,64.4,61,30.04,10.0,NNE,6.9,-,N/A,,Mostly Cloudy,30,2013-06-19 18:55:00
3:15 PM,78.8,64.4,61,30.04,10.0,NE,6.9,-,N/A,,Mostly Cloudy,50,2013-06-19 19:15:00
3:35 PM,80.6,64.4,58,30.04,10.0,NE,6.9,-,N/A,,Mostly Cloudy,50,2013-06-19 19:35:00
3:55 PM,78.8,64.4,61,30.03,10.0,NNE,10.4,-,N/A,,Scattered Clouds,30,2013-06-19 19:55:00
4:15 PM,78.8,64.4,61,30.03,10.0,East,4.6,-,N/A,,Scattered Clouds,90,2013-06-19 20:15:00
4:35 PM,78.8,64.4,61,30.03,10.0,ENE,6.9,-,N/A,,Scattered Clouds,60,2013-06-19 20:35:00
4:55 PM,80.6,64.4,58,30.03,10.0,NNE,10.4,-,N/A,,Clear,30,2013-06-19 20:55:00
5:15 PM,80.6,64.4,58,30.03,10.0,ENE,4.6,-,N/A,,Clear,60,2013-06-19 21:15:00
5:35 PM,78.8,64.4,61,30.03,10.0,NE,5.8,-,N/A,,Scattered Clouds,50,2013-06-19 21:35:00
5:55 PM,78.8,64.4,61,30.03,10.0,ENE,5.8,-,N/A,,Scattered Clouds,70,2013-06-19 21:55:00
6:15 PM,77.0,64.4,65,30.04,10.0,NE,5.8,-,N/A,,Mostly Cloudy,50,2013-06-19 22:15:00
6:35 PM,77.0,64.4,65,30.05,10.0,ENE,5.8,-,N/A,,Scattered Clouds,70,2013-06-19 22:35:00
6:55 PM,77.0,64.4,65,30.05,10.0,NE,3.5,-,N/A,,Scattered Clouds,40,2013-06-19 22:55:00
7:15 PM,77.0,64.4,65,30.05,10.0,NE,4.6,-,N/A,,Clear,50,2013-06-19 23:15:00
7:35 PM,75.2,64.4,69,30.06,10.0,NE,4.6,-,N/A,,Clear,50,2013-06-19 23:35:00
7:55 PM,75.2,64.4,69,30.06,10.0,Calm,Calm,-,N/A,,Clear,0,2013-06-19 23:55:00
8:15 PM,73.4,64.4,73,30.06,10.0,Calm,Calm,-,N/A,,Clear,0,2013-06-20 00:15:00
8:35 PM,71.6,66.2,83,30.06,10.0,Calm,Calm,-,N/A,,Clear,0,2013-06-20 00:35:00
8:55 PM,71.6,66.2,83,30.07,10.0,NNE,3.5,-,N/A,,Clear,30,2013-06-20 00:55:00
9:15 PM,71.6,64.4,78,30.08,10.0,NE,3.5,-,N/A,,Clear,40,2013-06-20 01:15:00
9:35 PM,71.6,66.2,83,30.09,10.0,NE,3.5,-,N/A,,Clear,50,2013-06-20 01:35:00
9:55 PM,69.8,66.2,88,30.10,10.0,NE,3.5,-,N/A,,Clear,40,2013-06-20 01:55:00
10:15 PM,69.8,66.2,88,30.11,10.0,Calm,Calm,-,N/A,,Clear,0,2013-06-20 02:15:00
10:35 PM,69.8,64.4,83,30.11,10.0,NNE,3.5,-,N/A,,Clear,30,2013-06-20 02:35:00
10:55 PM,69.8,64.4,83,30.11,10.0,Calm,Calm,-,N/A,,Clear,0,2013-06-20 02:55:00
11:15 PM,69.8,64.4,83,30.12,10.0,Calm,Calm,-,N/A,,Scattered Clouds,0,2013-06-20 03:15:00
11:35 PM,68.0,66.2,94,30.11,10.0,Calm,Calm,-,N/A,,Scattered Clouds,0,2013-06-20 03:35:00
11:55 PM,68.0,66.2,94,30.12,10.0,Calm,Calm,-,N/A,,Scattered Clouds,0,2013-06-20 03:55:00